Regional Weather Roundup
Issued by NWS

Home | Current Version | Previous Version | Graphics & Text | Print | Product List | Glossary On
Versions: 1 2 3 4 5 6 7 8 9 10 11 12 13 14 15 16 17 18 19 20 21 22 23 24 25 26 27 28 29 30 31 32 33 34 35 36 37 38 39 40 41 42 43 44 45 46 47 48 49 50
000
ASUS43 KLSX 281010
RWRMO

WEATHER SUMMARY FOR MISSOURI
NATIONAL WEATHER SERVICE SPRINGFIELD MO
500 AM CDT SUN AUG 28 2016

NOTE: "FAIR" INDICATES FEW OR NO CLOUDS BELOW 12,000 FEET WITH NO
       SIGNIFICANT WEATHER AND/OR OBSTRUCTIONS TO VISIBILITY.
       CURRENT SKY AND/OR WEATHER CONDITIONS ARE NOT AVAILABLE FOR
       CHILLICOTHE AND FARMINGTON.

MOZ001>031-035>038-043-044-053-054-281100-
...NORTHERN AND WESTERN MISSOURI...

CITY           SKY/WX    TMP DP  RH WIND       PRES   REMARKS
KANSAS CTY INT PTCLDY    72  68  87 S3        30.08R
KANSAS C DTWN  PTCLDY    74  71  91 CALM      30.07R
LEE`S SUMMIT   CLEAR     73  70  90 S5        30.08F
ST JOSEPH      MOCLDY    69  67  93 CALM      30.07S
KIRKSVILLE     CLEAR     68  66  93 E3        30.11S FOG

$$
MOZ066>068-077>081-088>096-101>105-281100-
...SOUTHWEST MISSOURI...

CITY           SKY/WX    TMP DP  RH WIND       PRES   REMARKS
SPRINGFIELD    CLEAR     74  70  87 S8        30.10R
JOPLIN         CLEAR     71  70  96 SE6       30.09R
BRANSON        CLEAR     72  72 100 CALM      30.13R

$$
MOZ032>034-039>042-045>050-055>058-069>072-281100-
...CENTRAL MISSOURI...

CITY           SKY/WX    TMP DP  RH WIND       PRES   REMARKS
COLUMBIA       CLEAR     72  70  93 SE5       30.11R
JEFFERSON CITY CLEAR     72  71  97 SE5       30.09R
ROLLA          CLEAR     72  70  93 S6        30.12R
SEDALIA        CLEAR     71  68  90 S5        30.10R
WHITEMAN AFB   CLEAR     71  71 100 S2        30.07S
OSAGE BEACH    CLEAR     71  70  96 SE3       30.11R

$$
MOZ051-052-059>065-281100-
...EAST CENTRAL MISSOURI...

CITY           SKY/WX    TMP DP  RH WIND       PRES   REMARKS
ST LOUIS INTL  MOCLDY    74  70  87 E5        30.11S
SPIRIT OF STL  PTCLDY    71  71 100 CALM      30.10R FOG
ST CHARLES     PTCLDY    72  72 100 CALM      30.10S

$$
MOZ072>076-082>087-097>100-106>115-281100-
...SOUTH CENTRAL AND SOUTHEAST MISSOURI...

CITY           SKY/WX    TMP DP  RH WIND       PRES   REMARKS
CAPE GIRARDEAU PTCLDY    72  71  97 SE3       30.09S FOG
FARMINGTON     FOG       68  68 100 CALM      30.13S VSB 1
POPLAR BLUFF   CLEAR     72  70  93 CALM      30.08F
WEST PLAINS    MOCLDY    68  66  93 CALM      30.14S FOG

$$




USA.gov is the U.S. government's official web portal to all federal, state and local government web resources and services.